[Date Prev][Date Next][Thread Prev][Thread Next] - [Date Index][Thread Index][Author Index]
2 Line ISS Keps 12-3
- Subject: [sarex] 2 Line ISS Keps 12-3
- From: "Dave Larsen PhD" <doc@xxxxxxxxxxx>
- Date: Wed, 3 Dec 2003 03:54:15 -0800
ISS
1 25544U 98067A 03337.14870878 .00033178 00000-0 33288-3 0 8537
2 25544 51.6303 247.8109 0005873 202.5922 312.7981 15.65166591287414
----
Via the sarex mailing list at AMSAT.ORG courtesy of AMSAT-NA.
To unsubscribe, send "unsubscribe sarex" to Majordomo@amsat.org
AMSAT Home